sat.trackr.live / text

‹ back to catalog

QIANFAN-229

NORAD 69858 · 2026-155L

PAYLOAD ACTIVE UNKNOWN

§ Identity

Operator
Country
PRC
Launch date
2026-07-05
Launch site
WSC
Launch vehicle
Mass (kg)
RCS (m²)

External: N2YO · Heavens-Above · Gunter

§ Orbital elements

Epoch: 2026-09-19T18:53:22.074720Z

Period
106.76 min
Inclination
89.0090°
Eccentricity
0.0038013
Mean motion
13.48849488 rev/d
Perigee alt
1,048.2 km
Apogee alt
1,104.8 km
Semi-major
7,454.6 km
B*
-3.2123e+0
RAAN
53.7705°
Arg perigee
8.9911°
Mean anomaly
351.1911°
Rev number
1,064

§ Raw data

QIANFAN-2291 69858U 26155L   26262.78706105 -.01877480  00000+0 -32123+1 0  99942 69858  89.0090  53.7705 0038013   8.9911 351.1911 13.48849488 10643

JSON: /api/v1/satellites/69858 · /tle

For live sub-satellite position, see the globe view (requires WebGL).

§ Visibility from observer

Set your observer location to see the next 7 days of passes ≥ 10°. The values pass through the URL so the page stays shareable.

No JS? Fill the form by hand. The geolocation button needs JavaScript.